Location: Unspecified
(48.7670°N, 0.0000°E)
Time: 18:57:10
(UTC+00:00)

Vanguard 2 Rocket - Pass Details

Date: 21 June 2019
Orbit: 554 x 3326 km, 32.9° (Epoch: 21 July)

Event Time Altitude Azimuth Distance (km) Brightness Sun altitude
Rises 00:37:27 0° 254° (WSW) 5,004 10.4 -17.4°
Reaches altitude 10° 00:40:29 10° 247° (WSW) 4,342 10.0 -17.3°
Maximum altitude 00:52:11 42° 182° (S) 3,438 9.3 -16.9°
Drops below altitude 10° 01:09:15 10° 121° (ESE) 6,223 11.0 -16.2°
Sets 01:14:42 0° 116° (ESE) 7,312 11.4 -16.0°
